PLEIADES 1A

Last updated on Mon Sep 21 2026 00:02:45 GMT+0000 (Coordinated Universal Time)

1 38012U 11076F 26263.63357648 .00000060 00000+0 22666-4 0 9991 2 38012 98.1901 337.4164 0001278 103.2974 34.2744 14.58543449785906
UTC large
Height (km)
Speed (km/s)
/
Latitude / Longitude
Inclination (degrees)
Orbital Period (minutes)
Azimuth
Elevation
Range (km)
Doppler Factor

Next 0 passes for location: London (51.5072 / 0.1276)

No passes found over London.
PLEIADES 1A